This is the latest recevied weather packets stored in our database for station/object KA9CBS. If no packets are shown the sender has not sent any weather packets the latest 10 day(s).
| Time | Temp. | Humidity | Pressure | Rain* | Wind** | Luminosity | Snow |
|---|---|---|---|---|---|---|---|
| 1777478199 | 15.56° C | 77% | 1017.7 hPa | 0 mm | - | 627 W/m² | - |
| 1777477895 | 15.56° C | 71% | 1017.7 hPa | 0 mm | - | 615 W/m² | - |
| 1777477590 | 15.56° C | 71% | 1017.6 hPa | 0 mm | - | 599 W/m² | - |
| 1777477287 | 15° C | 71% | 1017.5 hPa | 0 mm | - | 580 W/m² | - |
| 1777476984 | 15.56° C | 72% | 1017.3 hPa | 0 mm | - | 573 W/m² | - |
| 1777476682 | 15° C | 72% | 1017.4 hPa | 0 mm | - | 527 W/m² | - |
| 1777476378 | 15° C | 72% | 1017.5 hPa | 0 mm | - | 560 W/m² | - |
| 1777476075 | 15° C | 74% | 1017.2 hPa | 0 mm | - | 536 W/m² | - |
| 1777475769 | 15° C | 77% | 1017.4 hPa | 0 mm | - | 532 W/m² | - |
| 1777475467 | 15° C | 75% | 1017.1 hPa | 0 mm | - | 509 W/m² | - |
| 1777475162 | 15° C | 76% | 1017 hPa | 0 mm | - | 516 W/m² | - |
| 1777474859 | 15° C | 76% | 1017.2 hPa | 0 mm | - | 406 W/m² | - |
| 1777474554 | 15° C | 78% | 1017 hPa | 0 mm | - | 460 W/m² | - |
| 1777474251 | 15° C | 79% | 1016.8 hPa | 0 mm | - | 471 W/m² | - |
| 1777473948 | 15° C | 79% | 1016.6 hPa | 0 mm | - | 496 W/m² | - |
| 1777473646 | 14.44° C | 81% | 1016.9 hPa | 0 mm | - | 522 W/m² | - |
| 1777473342 | 14.44° C | 80% | 1016.8 hPa | 0 mm | - | 529 W/m² | - |
| 1777473038 | 14.44° C | 82% | 1016.8 hPa | 0 mm | - | 532 W/m² | - |
| 1777472734 | 14.44° C | 83% | 1016.7 hPa | 0 mm | - | 540 W/m² | - |
| 1777472431 | 14.44° C | 83% | 1016.7 hPa | 0 mm | - | 469 W/m² | - |
| 1777472129 | 13.89° C | 83% | 1016.8 hPa | 0 mm | - | 415 W/m² | - |
| 1777471829 | 13.89° C | 85% | 1016.8 hPa | 0 mm | - | 376 W/m² | - |
| 1777471526 | 14.44° C | 82% | 1016.6 hPa | 0 mm | - | 126 W/m² | - |
| 1777471222 | 14.44° C | 79% | 1016.6 hPa | 0 mm | - | 424 W/m² | - |
| 1777470919 | 13.89° C | 79% | 1016.6 hPa | 0 mm | - | 317 W/m² | - |
* Rain latest hour (hover to see other rain measurements)
** Current wind speed in m/s (hover to see current wind gust speed)